This is the latest recevied weather packets stored in our database for station/object HS3MXC-5. If no packets are shown the sender has not sent any weather packets the latest 10 day(s).
| Time | Temp. | Humidity | Pressure | Rain* | Wind** | Luminosity | Snow |
|---|---|---|---|---|---|---|---|
| 1777890412 | 33.89° C | 48% | 994.8 hPa | - | - | - | - |
| 1777890106 | 33.89° C | 48% | 994.5 hPa | - | - | - | - |
| 1777889799 | 34.44° C | 49% | 994 hPa | - | - | - | - |
| 1777889493 | 34.44° C | 50% | 994.2 hPa | - | - | - | - |
| 1777889186 | 34.44° C | 52% | 994.1 hPa | - | - | - | - |
| 1777888574 | 34.44° C | 51% | 993.8 hPa | - | - | - | - |
| 1777888267 | 35° C | 49% | 993.8 hPa | - | - | - | - |
| 1777887960 | 35° C | 49% | 993.8 hPa | - | - | - | - |
| 1777887654 | 35° C | 49% | 994 hPa | - | - | - | - |
| 1777887347 | 35° C | 49% | 993.9 hPa | - | - | - | - |
| 1777887039 | 35° C | 50% | 993.9 hPa | - | - | - | - |
| 1777886733 | 35° C | 50% | 993.7 hPa | - | - | - | - |
| 1777886426 | 35° C | 50% | 993.6 hPa | - | - | - | - |
| 1777885813 | 35° C | 51% | 993.6 hPa | - | - | - | - |
| 1777885507 | 35° C | 52% | 993.6 hPa | - | - | - | - |
| 1777720764 | 35° C | 49% | 993 hPa | - | - | - | - |
| 1777720458 | 35° C | 49% | 992.9 hPa | - | - | - | - |
| 1777720151 | 35° C | 49% | 993 hPa | - | - | - | - |
| 1777719844 | 35° C | 48% | 993 hPa | - | - | - | - |
| 1777719538 | 35° C | 48% | 993 hPa | - | - | - | - |
| 1777719232 | 35° C | 48% | 992.9 hPa | - | - | - | - |
| 1777718925 | 35.56° C | 48% | 992.8 hPa | - | - | - | - |
| 1777718619 | 35.56° C | 48% | 992.8 hPa | - | - | - | - |
| 1777718312 | 35.56° C | 48% | 992.6 hPa | - | - | - | - |
| 1777718006 | 35.56° C | 47% | 992.6 hPa | - | - | - | - |
* Rain since midnight (hover to see other rain measurements)
** Current wind speed in m/s (hover to see current wind gust speed)